Tracking 29892 objects as of 21-Nov-2024
HD Live streaming from Space Station
objects crossing your sky now

STARLINK-1741

Track STARLINK-1741 now!
10-day predictions
STARLINK-1741 is classified as:


NORAD ID: 46567
Int'l Code: 2020-070AM
Perigee: 553.4 km
Apogee: 555.4 km
Inclination: 53.1 °
Period: 95.6 minutes
Semi major axis: 6925 km
RCS: Unknown
Launch date: October 6, 2020
Source: United States (US)
Launch site: AIR FORCE EASTERN TEST RANGE (AFETR)
Your satellite tracking list
Your tracking list is empty




NASA's NSSDC Master Catalog

Two Line Element Set (TLE):
1 46567U 20070AM  24324.74127653  .00003960  00000-0  28461-3 0  9999
2 46567  53.0534 128.7442 0001461  92.2915 267.8241 15.06395632228202
Source of the keplerian elements: AFSPC